owner,sensor,date,latitude,longitude,vertical_datum,wind_speed,wind_to_direction,wind_speed_of_gust,qcFlag 
TABS,ioos:station:wmo:42044:1,2016-06-01T00:00:00Z,26.1914,-97.0507,0.0,4.978644394,154.6705156,6.11,'11111222,11111222,11111222' 
TABS,ioos:station:wmo:42044:1,2016-06-01T00:30:00Z,26.1914,-97.0507,0.0,3.242221461,141.0093076,5.75,'11111222,11111222,11111222' 
TABS,ioos:station:wmo:42044:1,2016-06-01T01:00:00Z,26.1914,-97.0507,0.0,6.963942849,140.068322,9.03,'11111222,11111222,11111222' 
TABS,ioos:station:wmo:42044:1,2016-06-01T01:30:00Z,26.1914,-97.0507,0.0,3.920012755,139.0343782,7.32,'11111222,11111222,11111222' 
TABS,ioos:station:wmo:42044:1,2016-06-01T02:00:00Z,26.1914,-97.0507,0.0,6.338083306,138.1340437,7.82,'11111222,11111222,11111222' 
TABS,ioos:station:wmo:42044:1,2016-06-01T02:30:00Z,26.1914,-97.0507,0.0,5.655201146,137.508534,8.6,'11111222,11111222,11111222' 
TABS,ioos:station:wmo:42044:1,2016-06-01T03:00:00Z,26.1914,-97.0507,0.0,6.864765109,130.6287792,8.38,'11111222,11111222,11111222' 
TABS,ioos:station:wmo:42044:1,2016-06-01T03:30:00Z,26.1914,-97.0507,0.0,5.982783633,114.5949085,7.62,'11111222,11111222,11111222' 
TABS,ioos:station:wmo:42044:1,2016-06-01T04:00:00Z,26.1914,-97.0507,0.0,5.998541489,105.8670587,7.06,'11111222,11111222,11111222' 
TABS,ioos:station:wmo:42044:1,2016-06-01T04:30:00Z,26.1914,-97.0507,0.0,5.95007563,104.900789,7.12,'11111222,11111222,11111222' 
TABS,ioos:station:wmo:42044:1,2016-06-01T05:00:00Z,26.1914,-97.0507,0.0,5.390009276,89.89327931,6.45,'11111222,11111222,11111222' 
TABS,ioos:station:wmo:42044:1,2016-06-01T05:30:00Z,26.1914,-97.0507,0.0,7.061515418,79.80361468,8.52,'11111222,11111222,11111222' 
TABS,ioos:station:wmo:42044:1,2016-06-01T06:00:00Z,26.1914,-97.0507,0.0,6.820029325,57.94083992,8.08,'11111222,11111222,11111222' 
TABS,ioos:station:wmo:42044:1,2016-06-01T06:30:00Z,26.1914,-97.0507,0.0,7.536265653,42.79502518,9.0,'11111222,11111222,11111222' 
TABS,ioos:station:wmo:42044:1,2016-06-01T07:00:00Z,26.1914,-97.0507,0.0,11.49074845,33.96636627,13.49,'11111222,11111222,11111222' 
TABS,ioos:station:wmo:42044:1,2016-06-01T07:30:00Z,26.1914,-97.0507,0.0,8.661806971,84.36798233,10.58,'11111222,11111222,11111222' 
TABS,ioos:station:wmo:42044:1,2016-06-01T08:00:00Z,26.1914,-97.0507,0.0,8.946379156,107.9695186,10.66,'11111222,11111222,11111222' 
TABS,ioos:station:wmo:42044:1,2016-06-01T08:30:00Z,26.1914,-97.0507,0.0,10.29866496,137.5582143,12.53,'11111222,11111222,11111222' 
TABS,ioos:station:wmo:42044:1,2016-06-01T09:00:00Z,26.1914,-97.0507,0.0,12.46049758,155.7389763,15.14,'11111222,11111222,11111222' 
TABS,ioos:station:wmo:42044:1,2016-06-01T09:30:00Z,26.1914,-97.0507,0.0,14.98827875,170.4373587,19.98,'11111222,11111222,11111222' 
TABS,ioos:station:wmo:42044:1,2016-06-01T10:00:00Z,26.1914,-97.0507,0.0,15.53288769,172.7882814,21.67,'11111222,11111222,11111222' 
TABS,ioos:station:wmo:42044:1,2016-06-01T10:30:00Z,26.1914,-97.0507,0.0,14.16107694,177.7338623,19.55,'11111222,11111222,11111222' 
TABS,ioos:station:wmo:42044:1,2016-06-01T11:00:00Z,26.1914,-97.0507,0.0,10.71717313,260.4937548,16.34,'11111222,11111222,11111222' 
TABS,ioos:station:wmo:42044:1,2016-06-01T11:30:00Z,26.1914,-97.0507,0.0,13.0229221,230.5775763,17.45,'11111222,11111222,11111222' 
TABS,ioos:station:wmo:42044:1,2016-06-01T12:00:00Z,26.1914,-97.0507,0.0,12.63861147,211.6403079,14.41,'11111222,11111222,11111222' 
TABS,ioos:station:wmo:42044:1,2016-06-01T12:30:00Z,26.1914,-97.0507,0.0,13.73953784,192.1852282,16.9,'11111222,11111222,11111222' 
TABS,ioos:station:wmo:42044:1,2016-06-01T13:00:00Z,26.1914,-97.0507,0.0,11.66741188,191.8205533,14.53,'11111222,11111222,11111222' 
TABS,ioos:station:wmo:42044:1,2016-06-01T13:30:00Z,26.1914,-97.0507,0.0,9.091644516,177.100047,11.81,'11111222,11111222,11111222' 
TABS,ioos:station:wmo:42044:1,2016-06-01T14:00:00Z,26.1914,-97.0507,0.0,8.943399801,174.3533775,10.87,'11111222,11111222,11111222' 
TABS,ioos:station:wmo:42044:1,2016-06-01T14:30:00Z,26.1914,-97.0507,0.0,8.043861013,167.7263867,10.64,'11111222,11111222,11111222' 
TABS,ioos:station:wmo:42044:1,2016-06-01T15:00:00Z,26.1914,-97.0507,0.0,8.175237,252.34081,10.43,'11111222,11111222,11111222' 
TABS,ioos:station:wmo:42044:1,2016-06-01T15:30:00Z,26.1914,-97.0507,0.0,9.83085449,273.7326526,11.74,'11111222,11111222,11111222' 
TABS,ioos:station:wmo:42044:1,2016-06-01T16:00:00Z,26.1914,-97.0507,0.0,7.679544257,321.9809359,9.85,'11111222,11111222,11111222' 
TABS,ioos:station:wmo:42044:1,2016-06-01T16:30:00Z,26.1914,-97.0507,0.0,7.27011004,306.5545703,8.61,'11111222,11111222,11111222' 
TABS,ioos:station:wmo:42044:1,2016-06-01T17:00:00Z,26.1914,-97.0507,0.0,5.948688931,340.864334,7.25,'11111222,11111222,11111222' 
TABS,ioos:station:wmo:42044:1,2016-06-01T17:30:00Z,26.1914,-97.0507,0.0,5.366721532,322.1904394,6.68,'11111222,11111222,11111222' 
TABS,ioos:station:wmo:42044:1,2016-06-01T18:00:00Z,26.1914,-97.0507,0.0,3.936495904,312.1169381,4.8,'11111222,11111222,11111222' 
TABS,ioos:station:wmo:42044:1,2016-06-01T18:30:00Z,26.1914,-97.0507,0.0,2.917961617,346.7255708,3.77,'11111222,11111222,11111222' 
TABS,ioos:station:wmo:42044:1,2016-06-01T19:00:00Z,26.1914,-97.0507,0.0,2.527943828,11.17634675,3.3,'11111222,11111222,11111222' 
TABS,ioos:station:wmo:42044:1,2016-06-01T19:30:00Z,26.1914,-97.0507,0.0,2.53938969,14.3643384,3.16,'11111222,11111222,11111222' 
TABS,ioos:station:wmo:42044:1,2016-06-01T20:00:00Z,26.1914,-97.0507,0.0,2.799571396,26.74783116,3.38,'11111222,11111222,11111222' 
TABS,ioos:station:wmo:42044:1,2016-06-01T20:30:00Z,26.1914,-97.0507,0.0,2.62488095,49.6351369,3.16,'11111222,11111222,11111222' 
TABS,ioos:station:wmo:42044:1,2016-06-01T21:00:00Z,26.1914,-97.0507,0.0,2.613235542,50.27831803,3.25,'11111222,11111222,11111222' 
TABS,ioos:station:wmo:42044:1,2016-06-01T21:30:00Z,26.1914,-97.0507,0.0,3.64793092,78.13521638,4.2,'11111222,11111222,11111222' 
TABS,ioos:station:wmo:42044:1,2016-06-01T22:00:00Z,26.1914,-97.0507,0.0,3.865177874,92.96645487,4.51,'11111222,11111222,11111222' 
TABS,ioos:station:wmo:42044:1,2016-06-01T22:30:00Z,26.1914,-97.0507,0.0,3.761914406,91.82838489,4.23,'11111222,11111222,11111222' 
TABS,ioos:station:wmo:42044:1,2016-06-01T23:00:00Z,26.1914,-97.0507,0.0,4.317001274,102.1693068,4.97,'11111222,11111222,11111222' 
TABS,ioos:station:wmo:42044:1,2016-06-01T23:30:00Z,26.1914,-97.0507,0.0,3.77033155,98.3883974,4.37,'11111222,11111222,11111222' 
TABS,ioos:station:wmo:42044:1,2016-06-02T00:00:00Z,26.1914,-97.0507,0.0,4.876494643,109.0298126,5.58,'11111222,11111222,11111222' 
TABS,ioos:station:wmo:42044:1,2016-06-02T00:30:00Z,26.1914,-97.0507,0.0,4.761701377,101.2631312,5.49,'11111222,11111222,11111222' 
TABS,ioos:station:wmo:42044:1,2016-06-02T01:00:00Z,26.1914,-97.0507,0.0,5.125007317,104.578931,6.12,'11111222,11111222,11111222' 
TABS,ioos:station:wmo:42044:1,2016-06-02T01:30:00Z,26.1914,-97.0507,0.0,5.341610244,112.9172699,6.26,'11111222,11111222,11111222' 
TABS,ioos:station:wmo:42044:1,2016-06-02T02:00:00Z,26.1914,-97.0507,0.0,6.02137858,124.0334933,7.4,'11111222,11111222,11111222' 
TABS,ioos:station:wmo:42044:1,2016-06-02T02:30:00Z,26.1914,-97.0507,0.0,4.379326432,115.278084,5.24,'11111222,11111222,11111222' 
TABS,ioos:station:wmo:42044:1,2016-06-02T03:00:00Z,26.1914,-97.0507,0.0,4.582062854,126.570127,5.57,'11111222,11111222,11111222' 
TABS,ioos:station:wmo:42044:1,2016-06-02T03:30:00Z,26.1914,-97.0507,0.0,4.322337331,126.1544054,5.17,'11111222,11111222,11111222' 
TABS,ioos:station:wmo:42044:1,2016-06-02T04:00:00Z,26.1914,-97.0507,0.0,3.44768038,123.0451119,4.26,'11111222,11111222,11111222' 
TABS,ioos:station:wmo:42044:1,2016-06-02T04:30:00Z,26.1914,-97.0507,0.0,2.869442455,121.7517421,3.53,'11111222,11111222,11111222' 
TABS,ioos:station:wmo:42044:1,2016-06-02T05:00:00Z,26.1914,-97.0507,0.0,1.876645944,119.7073638,2.22,'11111222,11111222,11111222' 
TABS,ioos:station:wmo:42044:1,2016-06-02T05:30:00Z,26.1914,-97.0507,0.0,0.4580393,143.8809541,1.16,'11111222,11111222,11111222' 
TABS,ioos:station:wmo:42044:1,2016-06-02T06:00:00Z,26.1914,-97.0507,0.0,0.4,180.0002105,0.78,'11111222,11111222,11111222' 
TABS,ioos:station:wmo:42044:1,2016-06-02T06:30:00Z,26.1914,-97.0507,0.0,1.735655496,94.62698081,2.26,'11111222,11111222,11111222' 
TABS,ioos:station:wmo:42044:1,2016-06-02T07:00:00Z,26.1914,-97.0507,0.0,2.284294202,93.51416296,2.86,'11111222,11111222,11111222' 
TABS,ioos:station:wmo:42044:1,2016-06-02T07:30:00Z,26.1914,-97.0507,0.0,3.539618624,109.8175271,4.08,'11111222,11111222,11111222' 
TABS,ioos:station:wmo:42044:1,2016-06-02T08:00:00Z,26.1914,-97.0507,0.0,3.435884166,118.1316975,4.11,'11111222,11111222,11111222' 
TABS,ioos:station:wmo:42044:1,2016-06-02T08:30:00Z,26.1914,-97.0507,0.0,3.42242604,125.966168,3.9,'11111222,11111222,11111222' 
TABS,ioos:station:wmo:42044:1,2016-06-02T09:00:00Z,26.1914,-97.0507,0.0,3.166022742,143.3475641,3.93,'11111222,11111222,11111222' 
TABS,ioos:station:wmo:42044:1,2016-06-02T09:30:00Z,26.1914,-97.0507,0.0,3.385203096,156.3127395,4.04,'11111222,11111222,11111222' 
TABS,ioos:station:wmo:42044:1,2016-06-02T10:00:00Z,26.1914,-97.0507,0.0,2.549607813,158.3657725,3.43,'11111222,11111222,11111222' 
TABS,ioos:station:wmo:42044:1,2016-06-02T10:30:00Z,26.1914,-97.0507,0.0,3.733430058,145.5866153,4.6,'11111222,11111222,11111222' 
TABS,ioos:station:wmo:42044:1,2016-06-02T11:00:00Z,26.1914,-97.0507,0.0,3.859546605,153.0368803,4.65,'11111222,11111222,11111222' 
TABS,ioos:station:wmo:42044:1,2016-06-02T11:30:00Z,26.1914,-97.0507,0.0,2.500639918,210.2565769,2.83,'11111222,11111222,11111222' 
TABS,ioos:station:wmo:42044:1,2016-06-02T12:00:00Z,26.1914,-97.0507,0.0,2.185634919,201.7528896,3.05,'11111222,11111222,11111222' 
TABS,ioos:station:wmo:42044:1,2016-06-02T12:30:00Z,26.1914,-97.0507,0.0,2.80713377,184.0858177,3.39,'11111222,11111222,11111222' 
TABS,ioos:station:wmo:42044:1,2016-06-02T13:00:00Z,26.1914,-97.0507,0.0,3.30860998,169.1997366,3.8,'11111222,11111222,11111222' 
TABS,ioos:station:wmo:42044:1,2016-06-02T13:30:00Z,26.1914,-97.0507,0.0,3.092733419,198.6694529,3.89,'11111222,11111222,11111222' 
TABS,ioos:station:wmo:42044:1,2016-06-02T14:00:00Z,26.1914,-97.0507,0.0,2.244393014,261.5449921,2.76,'11111222,11111222,11111222' 
TABS,ioos:station:wmo:42044:1,2016-06-02T14:30:00Z,26.1914,-97.0507,0.0,2.066518812,256.5690025,2.77,'11111222,11111222,11111222' 
TABS,ioos:station:wmo:42044:1,2016-06-02T15:00:00Z,26.1914,-97.0507,0.0,2.270088104,224.1077219,2.87,'11111222,11111222,11111222' 
TABS,ioos:station:wmo:42044:1,2016-06-02T15:30:00Z,26.1914,-97.0507,0.0,2.442334948,193.9795238,3.53,'11111222,11111222,11111222' 
TABS,ioos:station:wmo:42044:1,2016-06-02T16:00:00Z,26.1914,-97.0507,0.0,2.402519511,177.3759966,3.1,'11111222,11111222,11111222' 
TABS,ioos:station:wmo:42044:1,2016-06-02T16:30:00Z,26.1914,-97.0507,0.0,2.98918049,190.4078974,3.77,'11111222,11111222,11111222' 
TABS,ioos:station:wmo:42044:1,2016-06-02T17:00:00Z,26.1914,-97.0507,0.0,3.313547947,195.042976,4.14,'11111222,11111222,11111222' 
TABS,ioos:station:wmo:42044:1,2016-06-02T17:30:00Z,26.1914,-97.0507,0.0,5.052702247,208.7463532,6.55,'11111222,11111222,11111222' 
TABS,ioos:station:wmo:42044:1,2016-06-02T18:00:00Z,26.1914,-97.0507,0.0,4.80721333,231.8428626,6.07,'11111222,11111222,11111222' 
TABS,ioos:station:wmo:42044:1,2016-06-02T18:30:00Z,26.1914,-97.0507,0.0,4.733339202,226.9691352,6.92,'11111222,11111222,11111222' 
TABS,ioos:station:wmo:42044:1,2016-06-02T19:00:00Z,26.1914,-97.0507,0.0,4.374768565,237.508794,6.58,'11111222,11111222,11111222' 
TABS,ioos:station:wmo:42044:1,2016-06-02T19:30:00Z,26.1914,-97.0507,0.0,3.717324307,246.538363,4.92,'11111222,11111222,11111222' 
TABS,ioos:station:wmo:42044:1,2016-06-02T20:00:00Z,26.1914,-97.0507,0.0,2.052340128,337.0578539,3.07,'11111222,11111222,11111222' 
TABS,ioos:station:wmo:42044:1,2016-06-02T20:30:00Z,26.1914,-97.0507,0.0,0.864002315,73.87204097,2.05,'11111222,11111222,11111222' 
TABS,ioos:station:wmo:42044:1,2016-06-02T21:00:00Z,26.1914,-97.0507,0.0,2.161157097,104.7439493,2.81,'11111222,11111222,11111222' 
TABS,ioos:station:wmo:42044:1,2016-06-02T21:30:00Z,26.1914,-97.0507,0.0,2.888615585,69.74537954,3.82,'11111222,11111222,11111222' 
TABS,ioos:station:wmo:42044:1,2016-06-02T22:00:00Z,26.1914,-97.0507,0.0,2.999016505,68.4820357,3.65,'11111222,11111222,11111222' 
TABS,ioos:station:wmo:42044:1,2016-06-02T22:30:00Z,26.1914,-97.0507,0.0,4.083356463,62.74431444,4.85,'11111222,11111222,11111222' 
TABS,ioos:station:wmo:42044:1,2016-06-02T23:00:00Z,26.1914,-97.0507,0.0,5.12445119,31.27027473,5.84,'11111222,11111222,11111222' 
TABS,ioos:station:wmo:42044:1,2016-06-02T23:30:00Z,26.1914,-97.0507,0.0,5.778866671,54.93453885,7.04,'11111222,11111222,11111222' 
TABS,ioos:station:wmo:42044:1,2016-06-03T00:00:00Z,26.1914,-97.0507,0.0,5.263857901,62.99648403,6.38,'11111222,11111222,11111222' 
TABS,ioos:station:wmo:42044:1,2016-06-03T00:30:00Z,26.1914,-97.0507,0.0,3.2336048,154.1484084,5.89,'11111222,11111222,11111222' 
TABS,ioos:station:wmo:42044:1,2016-06-03T01:00:00Z,26.1914,-97.0507,0.0,10.08509792,165.4128322,13.53,'11111222,11111222,11111222' 
TABS,ioos:station:wmo:42044:1,2016-06-03T01:30:00Z,26.1914,-97.0507,0.0,6.555707437,174.9244836,10.76,'11111222,11111222,11111222' 
TABS,ioos:station:wmo:42044:1,2016-06-03T02:00:00Z,26.1914,-97.0507,0.0,3.010149498,207.5015977,5.24,'11111222,11111222,11111222' 
TABS,ioos:station:wmo:42044:1,2016-06-03T02:30:00Z,26.1914,-97.0507,0.0,5.803878014,202.8098682,7.58,'11111222,11111222,11111222' 
TABS,ioos:station:wmo:42044:1,2016-06-03T03:00:00Z,26.1914,-97.0507,0.0,6.699268617,189.3640887,8.72,'11111222,11111222,11111222' 
TABS,ioos:station:wmo:42044:1,2016-06-03T03:30:00Z,26.1914,-97.0507,0.0,7.181148933,203.2092232,10.58,'11111222,11111222,11111222' 
TABS,ioos:station:wmo:42044:1,2016-06-03T04:00:00Z,26.1914,-97.0507,0.0,4.738153649,204.834413,5.97,'11111222,11111222,11111222' 
TABS,ioos:station:wmo:42044:1,2016-06-03T04:30:00Z,26.1914,-97.0507,0.0,0.611882342,258.690094,2.71,'11111222,11111222,11111222' 
TABS,ioos:station:wmo:42044:1,2016-06-03T05:00:00Z,26.1914,-97.0507,0.0,2.794584048,313.1148957,3.61,'11111222,11111222,11111222' 
TABS,ioos:station:wmo:42044:1,2016-06-03T05:30:00Z,26.1914,-97.0507,0.0,3.31651926,338.2305115,4.39,'11111222,11111222,11111222' 
TABS,ioos:station:wmo:42044:1,2016-06-03T06:00:00Z,26.1914,-97.0507,0.0,2.702332326,22.8642442,3.87,'11111222,11111222,11111222' 
TABS,ioos:station:wmo:42044:1,2016-06-03T06:30:00Z,26.1914,-97.0507,0.0,2.331372986,91.96688089,3.01,'11111222,11111222,11111222' 
TABS,ioos:station:wmo:42044:1,2016-06-03T07:00:00Z,26.1914,-97.0507,0.0,0.84480767,96.11591018,1.74,'11111222,11111222,11111222' 
TABS,ioos:station:wmo:42044:1,2016-06-03T07:30:00Z,26.1914,-97.0507,0.0,2.758785965,274.5739106,3.71,'11111222,11111222,11111222' 
TABS,ioos:station:wmo:42044:1,2016-06-03T08:00:00Z,26.1914,-97.0507,0.0,3.785287307,273.0286915,4.87,'11111222,11111222,11111222' 
TABS,ioos:station:wmo:42044:1,2016-06-03T08:30:00Z,26.1914,-97.0507,0.0,4.799510392,259.55637,5.88,'11111222,11111222,11111222' 
TABS,ioos:station:wmo:42044:1,2016-06-03T09:00:00Z,26.1914,-97.0507,0.0,4.958164983,258.0101934,5.81,'11111222,11111222,11111222' 
TABS,ioos:station:wmo:42044:1,2016-06-03T09:30:00Z,26.1914,-97.0507,0.0,5.622855147,254.950469,6.6,'11111222,11111222,11111222' 
TABS,ioos:station:wmo:42044:1,2016-06-03T10:00:00Z,26.1914,-97.0507,0.0,4.930770731,255.794693,5.78,'11111222,11111222,11111222' 
TABS,ioos:station:wmo:42044:1,2016-06-03T10:30:00Z,26.1914,-97.0507,0.0,4.654911385,251.3315535,5.65,'11111222,11111222,11111222' 
TABS,ioos:station:wmo:42044:1,2016-06-03T11:00:00Z,26.1914,-97.0507,0.0,4.270948372,262.0596366,4.98,'11111222,11111222,11111222' 
TABS,ioos:station:wmo:42044:1,2016-06-03T11:30:00Z,26.1914,-97.0507,0.0,4.061329831,252.814334,4.67,'11111222,11111222,11111222' 
TABS,ioos:station:wmo:42044:1,2016-06-03T12:00:00Z,26.1914,-97.0507,0.0,5.160823578,253.5666413,6.27,'11111222,11111222,11111222' 
TABS,ioos:station:wmo:42044:1,2016-06-03T12:30:00Z,26.1914,-97.0507,0.0,3.98116817,264.0889364,4.99,'11111222,11111222,11111222' 
TABS,ioos:station:wmo:42044:1,2016-06-03T13:00:00Z,26.1914,-97.0507,0.0,3.760279245,264.0468362,4.42,'11111222,11111222,11111222' 
TABS,ioos:station:wmo:42044:1,2016-06-03T13:30:00Z,26.1914,-97.0507,0.0,3.001283059,265.0302709,4.14,'11111222,11111222,11111222' 
TABS,ioos:station:wmo:42044:1,2016-06-03T14:00:00Z,26.1914,-97.0507,0.0,2.7795863,255.413848,3.74,'11111222,11111222,11111222' 
TABS,ioos:station:wmo:42044:1,2016-06-03T14:30:00Z,26.1914,-97.0507,0.0,2.113669794,235.4077922,2.85,'11111222,11111222,11111222' 
TABS,ioos:station:wmo:42044:1,2016-06-03T15:00:00Z,26.1914,-97.0507,0.0,1.608011194,233.3439773,2.46,'11111222,11111222,11111222' 
TABS,ioos:station:wmo:42044:1,2016-06-03T15:30:00Z,26.1914,-97.0507,0.0,2.000849819,169.9259013,2.59,'11111222,11111222,11111222' 
TABS,ioos:station:wmo:42044:1,2016-06-03T16:00:00Z,26.1914,-97.0507,0.0,2.507987241,166.6289098,3.24,'11111222,11111222,11111222' 
TABS,ioos:station:wmo:42044:1,2016-06-03T16:30:00Z,26.1914,-97.0507,0.0,2.295059912,154.9984573,2.96,'11111222,11111222,11111222' 
TABS,ioos:station:wmo:42044:1,2016-06-03T17:00:00Z,26.1914,-97.0507,0.0,1.647118696,164.8671627,2.31,'11111222,11111222,11111222' 
TABS,ioos:station:wmo:42044:1,2016-06-03T17:30:00Z,26.1914,-97.0507,0.0,3.814511764,164.1786449,4.78,'11111222,11111222,11111222' 
TABS,ioos:station:wmo:42044:1,2016-06-03T18:00:00Z,26.1914,-97.0507,0.0,4.444738462,156.9540109,6.14,'11111222,11111222,11111222' 
TABS,ioos:station:wmo:42044:1,2016-06-03T18:30:00Z,26.1914,-97.0507,0.0,4.945947836,161.1257048,6.01,'11111222,11111222,11111222' 
TABS,ioos:station:wmo:42044:1,2016-06-03T19:00:00Z,26.1914,-97.0507,0.0,5.572162955,161.0450408,6.72,'11111222,11111222,11111222' 
TABS,ioos:station:wmo:42044:1,2016-06-03T19:30:00Z,26.1914,-97.0507,0.0,6.321835177,164.776923,7.74,'11111222,11111222,11111222' 
TABS,ioos:station:wmo:42044:1,2016-06-03T20:00:00Z,26.1914,-97.0507,0.0,6.185563838,168.4359817,7.37,'11111222,11111222,11111222' 
TABS,ioos:station:wmo:42044:1,2016-06-03T20:30:00Z,26.1914,-97.0507,0.0,6.691733707,165.5486708,8.43,'11111222,11111222,11111222' 
TABS,ioos:station:wmo:42044:1,2016-06-03T21:00:00Z,26.1914,-97.0507,0.0,6.420981233,174.3695409,7.6,'11111222,11111222,11111222' 
TABS,ioos:station:wmo:42044:1,2016-06-03T21:30:00Z,26.1914,-97.0507,0.0,5.500227268,180.5210656,6.63,'11111222,11111222,11111222' 
TABS,ioos:station:wmo:42044:1,2016-06-03T22:00:00Z,26.1914,-97.0507,0.0,3.521959682,175.2771097,4.44,'11111222,11111222,11111222' 
TABS,ioos:station:wmo:42044:1,2016-06-03T22:30:00Z,26.1914,-97.0507,0.0,2.536533067,215.6953546,3.11,'11111222,11111222,11111222' 
TABS,ioos:station:wmo:42044:1,2016-06-03T23:00:00Z,26.1914,-97.0507,0.0,5.075598487,303.3455928,6.81,'11111222,11111222,11111222' 
TABS,ioos:station:wmo:42044:1,2016-06-03T23:30:00Z,26.1914,-97.0507,0.0,5.25201866,233.2829184,7.55,'11111222,11111222,11111222' 
TABS,ioos:station:wmo:42044:1,2016-06-04T00:00:00Z,26.1914,-97.0507,0.0,1.764766273,203.369269,3.48,'11111222,11111222,11111222' 
TABS,ioos:station:wmo:42044:1,2016-06-04T00:30:00Z,26.1914,-97.0507,0.0,0.792590689,60.52375901,1.78,'11111222,11111222,11111222' 
TABS,ioos:station:wmo:42044:1,2016-06-04T01:00:00Z,26.1914,-97.0507,0.0,1.641036258,96.64905055,3.02,'11111222,11111222,11111222' 
TABS,ioos:station:wmo:42044:1,2016-06-04T01:30:00Z,26.1914,-97.0507,0.0,3.457311094,99.48996572,4.25,'11111222,11111222,11111222' 
TABS,ioos:station:wmo:42044:1,2016-06-04T02:00:00Z,26.1914,-97.0507,0.0,4.159855767,111.1367705,5.03,'11111222,11111222,11111222' 
TABS,ioos:station:wmo:42044:1,2016-06-04T02:30:00Z,26.1914,-97.0507,0.0,3.774453603,131.8859873,4.72,'11111222,11111222,11111222' 
TABS,ioos:station:wmo:42044:1,2016-06-04T03:00:00Z,26.1914,-97.0507,0.0,3.411187477,137.3763653,4.25,'11111222,11111222,11111222' 
TABS,ioos:station:wmo:42044:1,2016-06-04T03:30:00Z,26.1914,-97.0507,0.0,3.664314397,143.8809541,4.3,'11111222,11111222,11111222' 
TABS,ioos:station:wmo:42044:1,2016-06-04T04:00:00Z,26.1914,-97.0507,0.0,4.048505897,142.2246145,4.86,'11111222,11111222,11111222' 
TABS,ioos:station:wmo:42044:1,2016-06-04T04:30:00Z,26.1914,-97.0507,0.0,4.227871805,138.1641919,5.33,'11111222,11111222,11111222' 
TABS,ioos:station:wmo:42044:1,2016-06-04T05:00:00Z,26.1914,-97.0507,0.0,4.433790703,141.5019452,5.66,'11111222,11111222,11111222' 
TABS,ioos:station:wmo:42044:1,2016-06-04T05:30:00Z,26.1914,-97.0507,0.0,5.436956869,144.2053567,6.53,'11111222,11111222,11111222' 
TABS,ioos:station:wmo:42044:1,2016-06-04T06:00:00Z,26.1914,-97.0507,0.0,5.432319946,157.2587001,6.65,'11111222,11111222,11111222' 
TABS,ioos:station:wmo:42044:1,2016-06-04T06:30:00Z,26.1914,-97.0507,0.0,5.157770836,157.0642288,6.34,'11111222,11111222,11111222' 
TABS,ioos:station:wmo:42044:1,2016-06-04T07:00:00Z,26.1914,-97.0507,0.0,4.868059162,167.9054817,5.9,'11111222,11111222,11111222' 
TABS,ioos:station:wmo:42044:1,2016-06-04T07:30:00Z,26.1914,-97.0507,0.0,4.741687463,164.0880475,5.66,'11111222,11111222,11111222' 
TABS,ioos:station:wmo:42044:1,2016-06-04T08:00:00Z,26.1914,-97.0507,0.0,5.940210434,173.3298336,7.21,'11111222,11111222,11111222' 
TABS,ioos:station:wmo:42044:1,2016-06-04T08:30:00Z,26.1914,-97.0507,0.0,5.86533034,177.5573383,7.06,'11111222,11111222,11111222' 
TABS,ioos:station:wmo:42044:1,2016-06-04T09:00:00Z,26.1914,-97.0507,0.0,6.402507321,183.5821187,7.7,'11111222,11111222,11111222' 
TABS,ioos:station:wmo:42044:1,2016-06-04T09:30:00Z,26.1914,-97.0507,0.0,6.534439532,185.8852853,8.0,'11111222,11111222,11111222' 
TABS,ioos:station:wmo:42044:1,2016-06-04T10:00:00Z,26.1914,-97.0507,0.0,6.832817867,193.2839124,7.88,'11111222,11111222,11111222' 
TABS,ioos:station:wmo:42044:1,2016-06-04T10:30:00Z,26.1914,-97.0507,0.0,7.586626391,194.3478074,9.09,'11111222,11111222,11111222' 
TABS,ioos:station:wmo:42044:1,2016-06-04T11:00:00Z,26.1914,-97.0507,0.0,7.011305157,196.5741795,8.11,'11111222,11111222,11111222' 
TABS,ioos:station:wmo:42044:1,2016-06-04T11:30:00Z,26.1914,-97.0507,0.0,6.193173661,201.3033585,7.38,'11111222,11111222,11111222' 
TABS,ioos:station:wmo:42044:1,2016-06-04T12:00:00Z,26.1914,-97.0507,0.0,6.40644207,203.1635168,7.71,'11111222,11111222,11111222' 
TABS,ioos:station:wmo:42044:1,2016-06-04T12:30:00Z,26.1914,-97.0507,0.0,6.355131785,207.0490358,8.15,'11111222,11111222,11111222' 
TABS,ioos:station:wmo:42044:1,2016-06-04T13:00:00Z,26.1914,-97.0507,0.0,6.889716975,219.5820865,8.53,'11111222,11111222,11111222' 
TABS,ioos:station:wmo:42044:1,2016-06-04T13:30:00Z,26.1914,-97.0507,0.0,7.761237015,255.6773135,9.45,'11111222,11111222,11111222' 
TABS,ioos:station:wmo:42044:1,2016-06-04T14:00:00Z,26.1914,-97.0507,0.0,8.311943214,234.8951194,9.55,'11111222,11111222,11111222' 
TABS,ioos:station:wmo:42044:1,2016-06-04T14:30:00Z,26.1914,-97.0507,0.0,5.444933425,194.1385068,7.19,'11111222,11111222,11111222' 
TABS,ioos:station:wmo:42044:1,2016-06-04T15:00:00Z,26.1914,-97.0507,0.0,4.3583942,219.9740066,5.85,'11111222,11111222,11111222' 
TABS,ioos:station:wmo:42044:1,2016-06-04T15:30:00Z,26.1914,-97.0507,0.0,3.624913792,257.5740862,5.51,'11111222,11111222,11111222' 
TABS,ioos:station:wmo:42044:1,2016-06-04T16:00:00Z,26.1914,-97.0507,0.0,8.220875866,269.1636266,12.31,'11111222,11111222,11111222' 
TABS,ioos:station:wmo:42044:1,2016-06-04T16:30:00Z,26.1914,-97.0507,0.0,12.1398682,252.8487319,14.4,'11111222,11111222,11111222' 
TABS,ioos:station:wmo:42044:1,2016-06-04T17:00:00Z,26.1914,-97.0507,0.0,6.723243265,262.1350608,8.73,'11111222,11111222,11111222' 
TABS,ioos:station:wmo:42044:1,2016-06-04T17:30:00Z,26.1914,-97.0507,0.0,2.6375936,274.3487134,3.52,'11111222,11111222,11111222' 
TABS,ioos:station:wmo:42044:1,2016-06-04T18:00:00Z,26.1914,-97.0507,0.0,4.463238734,325.3128361,5.75,'11111222,11111222,11111222' 
TABS,ioos:station:wmo:42044:1,2016-06-04T18:30:00Z,26.1914,-97.0507,0.0,2.411244492,315.1679167,3.09,'11111222,11111222,11111222' 